TimePDT,TemperatureF,Dew PointF,Humidity,Sea Level PressureIn,VisibilityMPH,Wind Direction,Wind SpeedMPH,Gust SpeedMPH,PrecipitationIn,Events,Conditions,WindDirDegrees,DateUTC
12:54 AM,55.9,50.0,80,29.88,10.0,Calm,Calm,-,N/A,,Clear,0,2012-10-17 07:54:00
1:54 AM,54.0,51.1,90,29.88,10.0,Calm,Calm,-,N/A,,Clear,0,2012-10-17 08:54:00
2:54 AM,55.9,53.1,90,29.87,10.0,South,4.6,-,N/A,,Clear,170,2012-10-17 09:54:00
3:54 AM,55.0,52.0,89,29.85,10.0,Calm,Calm,-,N/A,,Clear,0,2012-10-17 10:54:00
4:54 AM,57.0,52.0,83,29.85,10.0,SE,9.2,-,N/A,,Clear,140,2012-10-17 11:54:00
5:54 AM,57.0,52.0,83,29.86,10.0,ESE,5.8,-,N/A,,Clear,120,2012-10-17 12:54:00
6:54 AM,57.0,51.1,81,29.87,10.0,SSE,5.8,-,N/A,,Clear,150,2012-10-17 13:54:00
7:54 AM,51.1,46.9,86,29.88,10.0,SSE,3.5,-,N/A,,Clear,150,2012-10-17 14:54:00
8:54 AM,60.1,55.0,83,29.89,10.0,Calm,Calm,-,N/A,,Clear,0,2012-10-17 15:54:00
9:54 AM,66.0,55.0,68,29.90,10.0,SSW,4.6,-,N/A,,Clear,210,2012-10-17 16:54:00
10:54 AM,71.1,54.0,55,29.88,10.0,SSW,3.5,-,N/A,,Clear,210,2012-10-17 17:54:00
11:54 AM,75.9,50.0,40,29.87,10.0,SW,5.8,-,N/A,,Clear,220,2012-10-17 18:54:00
12:54 PM,79.0,45.0,30,29.85,10.0,SW,8.1,-,N/A,,Clear,230,2012-10-17 19:54:00
1:54 PM,82.9,37.9,20,29.82,10.0,SW,6.9,-,N/A,,Clear,220,2012-10-17 20:54:00
2:54 PM,84.9,32.0,15,29.80,10.0,SSW,8.1,-,N/A,,Clear,200,2012-10-17 21:54:00
3:54 PM,87.1,32.0,14,29.79,10.0,SSW,9.2,-,N/A,,Clear,200,2012-10-17 22:54:00
4:54 PM,86.0,33.1,15,29.79,10.0,SSW,8.1,-,N/A,,Clear,200,2012-10-17 23:54:00
5:54 PM,77.0,54.0,45,29.78,10.0,WSW,4.6,-,N/A,,Clear,240,2012-10-18 00:54:00
6:54 PM,69.1,50.0,51,29.80,10.0,Calm,Calm,-,N/A,,Clear,0,2012-10-18 01:54:00
7:54 PM,60.1,42.1,51,29.81,10.0,ESE,5.8,-,N/A,,Clear,120,2012-10-18 02:54:00
8:54 PM,62.1,46.0,56,29.83,10.0,Calm,Calm,-,N/A,,Clear,0,2012-10-18 03:54:00
9:54 PM,55.9,41.0,57,29.84,10.0,Calm,Calm,-,N/A,,Clear,0,2012-10-18 04:54:00
10:54 PM,53.1,41.0,64,29.85,10.0,Calm,Calm,-,N/A,,Clear,0,2012-10-18 05:54:00
11:54 PM,52.0,39.9,63,29.86,10.0,Calm,Calm,-,N/A,,Clear,0,2012-10-18 06:54:00